Location: Newark
(41.9364°N, 2.8061°E)
Time: 04:15:33
(UTC+00:00)

N. Korean satellite - Visible Passes

Search period start: 27 January 2020 00:00
Search period end: 06 February 2020 00:00
Orbit: 454 x 507 km, 97.2° (Epoch: 26 January)

Date Brightness Start Highest point End Pass type
(mag) Time Alt. Az. Time Alt. Az. Time Alt. Az.
27 Jan 9.1 04:55:04 10° NE 04:57:57 22° E 05:00:50 10° SSE visible
27 Jan 7.8 06:28:24 10° NNW 06:31:14 22° WNW 06:34:06 10° WSW visible
28 Jan 10.1 04:31:10 10° ENE 04:32:16 11° E 04:33:22 10° ESE visible
28 Jan 6.8 06:02:25 10° N 06:05:52 45° WNW 06:09:22 10° SSW visible
29 Jan 6.6 05:36:48 10° NNE 05:40:25 81° ESE 05:44:04 10° S visible
29 Jan 9.8 17:47:16 10° SW 17:49:21 15° W 17:51:26 10° NW visible
30 Jan 8.2 05:11:30 10° NNE 05:14:53 36° E 05:18:17 10° SSE visible
31 Jan 9.5 04:46:42 10° NE 04:49:16 18° E 04:51:50 10° SE visible
31 Jan 7.5 06:19:30 10° NNW 06:22:39 28° WNW 06:25:49 10° SW visible
01 Feb 6.6 05:53:40 10° N 05:57:15 59° WNW 06:00:52 10° SSW visible
02 Feb 7.1 05:28:09 10° NNE 05:31:47 62° ESE 05:35:25 10° S visible
02 Feb 9.6 17:38:04 10° SW 17:40:37 19° W 17:43:11 10° NW visible
03 Feb 8.7 05:02:59 10° NE 05:06:12 29° E 05:09:27 10° SSE visible
04 Feb 9.9 04:38:26 10° ENE 04:40:32 15° E 04:42:39 10° SE visible
04 Feb 7.2 06:10:41 10° N 06:14:03 35° WNW 06:17:26 10° SW visible
05 Feb 6.5 05:44:56 10° N 05:48:37 77° WNW 05:52:18 10° SSW visible
05 Feb 10.1 17:56:07 10° WSW 17:57:34 12° W 17:59:00 10° WNW visible
